Starlink 5922

operational
NORAD ID: 55925 Int'l Des: 2023-037 Owner: SPXS Country: US Constellation: starlink
LEOCIRCULAR

Starlink 5922について

説明を読み込み中...

リアルタイム位置

3D地球を読み込み中...

次回通過

高度履歴

Altitude vs Time

uPlot chart will show altitude changes over time

軌道要素

1 55925U 23037M 25349.86980932 .00000613 00000-0 59175-4 0 9990
2 55925 69.9990 155.7177 0002867 272.4481 87.6350 14.98332540150930
Epoch: Dec 15, 2025 • Age: 27 hours

現在のステータス

高度 586.6 km
速度 7.57 km/s
衛星直下点 -42.96°S, 86°W
打ち上げ日 Mar 17, 2023
運用期間 2.7 years
タイプ internet

技術仕様

分類 Payload
質量 305.00 kg
乾燥質量 290.00 kg
総質量 305.00 kg
長さ 0.20 m
直径 2.80 m
スパン 9.00 m
形状 Box + pan
製造者 SPXS
バスタイプ Starlink
フェーズステータス In Orbit
所有者/国 SPXS/US

大規模コンステレーション

Loading constellations...